Flag for Germany Weather past 2 weeks in Homberg (Efze), Hesse, Germany

Now
43 °F

Overcast.


Feels Like: 40 °F
Forecast: 35 / 45 °F
Wind: 5 mph from Northwest

Location: Fritzlar

Current Time: Mar 5, 2015 at 6:13:24 PM

Latest Report: Mar 5, 2015 at 5:00 PM


Visibility: 22 mi

Pressure: 30.60 "Hg

Humidity: 61%

Dew point: 30 °F

Location of Homberg (Efze)Location

Historic Weather in Homberg (Efze) — Graph

°F

Homberg (Efze) temperature yesterday

Maximum temperature yesterday: 43 °F (at 5:00 PM)
Minimum temperature yesterday: 31 °F (at 7:00 AM)
Average temperature yesterday: 37 °F

Past Weeks' High & Low Weather Summary

 TemperatureHumidityPressure
High50 °F (Mar 1, 4:00 PM)96% (Feb 25, 1:00 AM)30.66 "Hg (Feb 25, 1:00 AM)
Low29 °F (Feb 25, 2:00 AM)42% (Mar 2, 3:00 PM)29.41 "Hg (Feb 21, 7:00 AM)
Average38 °F78%29.95 "Hg
* Reported Feb 18 7:00 PM — Mar 5 4:00 PM, Homberg (Efze), Weather by CustomWeather, © 2015

Note: Actual official high and low records may vary slightly from our data, if they occured in-between our weather recording intervals... More about our weather records

Advertising

Homberg (Efze) weather history for previous 24 hours

 ConditionsComfort  
Time TempWeatherWind HumidityBarometerVisibility
4:00 PM
Thu, Mar 5
43 °FOvercast.6 mph61%30.60 "Hg25 mi
3:00 PM43 °FOvercast.5 mph63%30.60 "Hg25 mi
2:00 PM43 °FOvercast.5 mph62%30.60 "Hg25 mi
1:00 PM42 °FOvercast.2 mph64%30.62 "Hg25 mi
12:00 PM41 °FOvercast.3 mph68%30.61 "Hg25 mi
11:00 AM40 °FOvercast.2 mph70%30.61 "Hg25 mi
10:00 AM38 °FPartly sunny.2 mph80%30.62 "Hg25 mi
9:00 AM35 °FPartly sunny.1 mph84%30.60 "Hg25 mi
8:00 AM33 °FPartly sunny.1 mph87%30.59 "Hg25 mi
7:00 AM36 °FPassing clouds.2 mph78%30.57 "Hg19 mi
6:00 AM36 °FPassing clouds.5 mph75%30.55 "Hg19 mi
5:00 AM37 °FPassing clouds.3 mph75%30.53 "Hg16 mi
4:00 AM37 °FOvercast.2 mph76%30.50 "Hg16 mi
3:00 AM37 °FLight rain. Low clouds.2 mph82%30.49 "Hg7 mi
2:00 AM37 °FLight rain. Overcast.3 mph82%30.46 "Hg7 mi
1:00 AM38 °FLight rain. Overcast.3 mph82%30.42 "Hg12 mi
12:00 AM37 °FLight rain. Overcast.6 mph84%30.39 "Hg12 mi
11:00 PM
Wed, Mar 4
38 °FLight rain. Overcast.5 mph82%30.36 "Hg12 mi
9:00 PM37 °FOvercast.3 mph85%30.33 "Hg12 mi
8:00 PM36 °FPassing clouds.5 mph84%30.32 "Hg12 mi
7:00 PM38 °FPassing clouds.5 mph77%30.31 "Hg12 mi
6:00 PM40 °FScattered clouds.6 mph70%30.29 "Hg12 mi
Weather by CustomWeather, © 2015

See weather overviewHow to use our weather pages